Location: Bothwell
(42.3833°S, 147.0000°E)
Time: 21:06:53
(UTC+11:00)

MOZHAYETS 4 - Pass Details

Date: 26 September 2022
Orbit: 659 x 678 km, 98.2° (Epoch: 25 November)

Event Time Altitude Azimuth Distance (km) Brightness Sun altitude
Rises 02:35:10 0° 153° (SSE) 3,035 12.0 -34.8°
Reaches altitude 10° 02:37:52 10° 137° (SE) 2,116 11.1 -34.4°
Enters shadow 02:41:14 22° 90° (E) 1,473 9.9 -34.0°
